Location: Mexico
(19.4000°N, 99.1500°W)
Time: 06:43:21
(UTC-06:00)

ISS - Pass Details

Date: 16 December 2017
Orbit: 402 x 406 km, 51.6° (Epoch: 16 December)

Event Time Altitude Azimuth Distance (km) Brightness Sun altitude
Rises 19:27:19 0° 322° (NW) 2,314 0.3 -19.7°
Reaches altitude 10° 19:29:24 10° 323° (NW) 1,453 -0.8 -20.1°
Enters shadow 19:31:44 44° 329° (NNW) 568 -3.1 -20.6°
